Flag for Germany Weather past 2 weeks in Nuremberg, Bavaria, Germany

Now
68 °F

Scattered showers. Broken clouds.


Feels Like: 68 °F
Forecast: 61 / 74 °F
Wind: 3 mph from Southeast

Location: Nuernberg

Current Time: Jul 28, 2014 at 9:01:51 PM

Latest Report: Jul 28, 2014 at 8:20 PM


Visibility: N/A

Pressure: 29.83 "Hg

Humidity: 88%

Dew point: 64 °F

Location of NurembergLocation

Historic Weather in Nuremberg — Graph

°F

Nuremberg temperature yesterday

Maximum temperature yesterday: 82 °F (at 2:50 PM)
Minimum temperature yesterday: 63 °F (at 4:20 AM)
Average temperature yesterday: 68 °F

Past Weeks' High & Low Weather Summary

 TemperatureHumidityPressure
High90 °F (Jul 19, 3:20 PM)100% (Jul 13, 10:20 PM)30.18 "Hg (Jul 13, 10:20 PM)
Low54 °F (Jul 16, 5:20 AM)26% (Jul 19, 5:50 PM)29.80 "Hg (Jul 28, 4:20 PM)
Average70 °F70%29.98 "Hg
* Reported Jul 13 7:20 PM — Jul 28 7:50 PM, Nuremberg, Weather by CustomWeather, © 2014

Note: Actual official high and low records may vary slightly from our data, if they occured in-between our weather recording intervals... More about our weather records

Advertising

Nuremberg weather history for previous 24 hours

 ConditionsComfort  
Time TempWeatherWind HumidityBarometerVisibility
7:50 PM
Jul 28
66 °FThundershowers. Broken clouds.6 mph88%29.80 "HgN/A
7:20 PM66 °FThunderstorms. Broken clouds.10 mph88%29.80 "HgN/A
6:50 PM70 °FThunderstorms. Partly sunny.14 mph78%29.80 "Hg5 mi
6:20 PM75 °FThunderstorms. Broken clouds.12 mph65%29.80 "HgN/A
5:50 PM81 °FBroken clouds.5 mph54%29.80 "HgN/A
5:20 PM81 °FBroken clouds.3 mph54%29.80 "HgN/A
4:50 PM81 °FBroken clouds.1 mph54%29.80 "HgN/A
4:20 PM79 °FBroken clouds.2 mph58%29.80 "HgN/A
3:50 PM79 °FBroken clouds.3 mph58%29.83 "HgN/A
3:20 PM79 °FBroken clouds.3 mph58%29.83 "HgN/A
2:50 PM79 °FBroken clouds.5 mph58%29.86 "HgN/A
2:20 PM79 °FPartly sunny.5 mph58%29.86 "HgN/A
1:50 PM77 °FPartly sunny.5 mph65%29.86 "HgN/A
1:20 PM77 °FPartly sunny.3 mph65%29.89 "HgN/A
12:50 PM75 °FPartly sunny.3 mph74%29.89 "HgN/A
12:20 PM73 °FPartly sunny.3 mph74%29.89 "HgN/A
11:50 AM73 °FScattered clouds.2 mph74%29.89 "HgN/A
11:20 AM72 °FScattered clouds.3 mph78%29.92 "HgN/A
10:50 AM70 °FScattered clouds.3 mph83%29.92 "HgN/A
10:20 AM68 °FScattered clouds.2 mph88%29.92 "HgN/A
9:50 AM68 °FScattered clouds.1 mph94%29.92 "HgN/A
9:20 AM66 °FScattered clouds.1 mph100%29.92 "Hg6 mi
8:50 AM64 °FScattered clouds.2 mph100%29.95 "Hg5 mi
8:20 AM66 °FBroken clouds.2 mph100%29.92 "Hg4 mi
7:50 AM63 °FBroken clouds.1 mph100%29.95 "Hg4 mi
7:20 AM63 °FPartly sunny.2 mph100%29.95 "Hg3 mi
6:50 AM63 °FFog.1 mph100%29.95 "Hg2 mi
6:20 AM63 °FFog.2 mph100%29.95 "Hg1 mi
5:50 AM63 °FFog.2 mph100%29.95 "Hg0 mi
5:20 AM63 °FFog.2 mph100%29.95 "Hg0 mi
4:20 AM63 °FFog.2 mph100%29.95 "Hg1 mi
3:50 AM63 °FFog.2 mph100%29.95 "Hg1 mi
3:20 AM63 °FFog.2 mph100%29.95 "Hg1 mi
2:50 AM63 °FFog.1 mph100%29.95 "Hg2 mi
2:20 AM63 °FFog.2 mph100%29.98 "Hg6 mi
1:50 AM64 °FFog.2 mph94%29.98 "Hg6 mi
1:20 AM64 °FFog.1 mph100%29.98 "Hg5 mi
12:50 AM64 °FFog.3 mph100%29.98 "Hg5 mi
12:20 AM64 °FFog.1 mph100%29.98 "Hg5 mi
11:50 PM
Jul 27
64 °FPassing clouds.1 mph100%29.98 "HgN/A
11:20 PM64 °FLight rain. Passing clouds.2 mph100%29.98 "HgN/A
10:50 PM64 °FLight rain. Passing clouds.1 mph100%29.98 "HgN/A
10:20 PM64 °FLight rain. Partly cloudy.1 mph100%29.98 "HgN/A
9:50 PM64 °FLight rain. Broken clouds.5 mph100%29.98 "HgN/A
9:20 PM64 °FLight rain. Broken clouds.6 mph100%29.98 "HgN/A
Weather by CustomWeather, © 2014

See weather overviewHow to use our weather pages